This is the latest recevied weather packets stored in our database for station/object WX4LTG. If no packets are shown the sender has not sent any weather packets the latest 10 day(s).
| Time | Temp. | Humidity | Pressure | Rain* | Wind** | Luminosity | Snow |
|---|---|---|---|---|---|---|---|
| 1777602549 | 30° C | 15% | 1004.9 hPa | 0 mm | - | 0 W/m² | - |
| 1777602245 | 30° C | 15% | 1004.6 hPa | 0 mm | - | 0 W/m² | - |
| 1777601941 | 30° C | 15% | 1004.6 hPa | 0 mm | - | 1 W/m² | - |
| 1777601641 | 30° C | 15% | 1004.5 hPa | 0 mm | - | 2 W/m² | - |
| 1777601336 | 30° C | 16% | 1004.5 hPa | 0 mm | - | 3 W/m² | - |
| 1777601033 | 30° C | 15% | 1004.3 hPa | 0 mm | - | 6 W/m² | - |
| 1777600730 | 30° C | 15% | 1004.4 hPa | 0 mm | - | 9 W/m² | - |
| 1777600426 | 30° C | 14% | 1004.3 hPa | 0 mm | - | 14 W/m² | - |
| 1777600122 | 30° C | 13% | 1004.2 hPa | 0 mm | - | 18 W/m² | - |
| 1777599818 | 30° C | 13% | 1004.1 hPa | 0 mm | - | 22 W/m² | - |
| 1777599514 | 30° C | 13% | 1004.2 hPa | 0 mm | - | 25 W/m² | - |
| 1777599211 | 30.56° C | 13% | 1004.1 hPa | 0 mm | - | 28 W/m² | - |
| 1777598907 | 30.56° C | 13% | 1004.2 hPa | 0 mm | - | 31 W/m² | - |
| 1777598604 | 30.56° C | 13% | 1004.2 hPa | 0 mm | - | 34 W/m² | - |
| 1777598300 | 30.56° C | 13% | 1004 hPa | 0 mm | - | 38 W/m² | - |
| 1777597998 | 30.56° C | 14% | 1004 hPa | 0 mm | - | 42 W/m² | - |
| 1777597697 | 30.56° C | 13% | 1004.1 hPa | 0 mm | - | 46 W/m² | - |
| 1777597393 | 30.56° C | 14% | 1004.1 hPa | 0 mm | - | 49 W/m² | - |
| 1777597089 | 30.56° C | 14% | 1004.2 hPa | 0 mm | - | 55 W/m² | - |
| 1777596786 | 30.56° C | 14% | 1004.4 hPa | 0 mm | - | 61 W/m² | - |
| 1777596481 | 30.56° C | 14% | 1004.3 hPa | 0 mm | - | 66 W/m² | - |
| 1777596179 | 30.56° C | 13% | 1004.2 hPa | 0 mm | - | 74 W/m² | - |
| 1777595876 | 30.56° C | 14% | 1004.2 hPa | 0 mm | - | 84 W/m² | - |
| 1777595576 | 30.56° C | 14% | 1004 hPa | 0 mm | - | 94 W/m² | - |
| 1777595272 | 31.11° C | 13% | 1004.4 hPa | 0 mm | - | 96 W/m² | - |
* Rain latest hour (hover to see other rain measurements)
** Current wind speed in m/s (hover to see current wind gust speed)